Weather in Ostrovyanskiy

Russia / Rostov Oblast     46°45′42″N   42°12′25″E
temp.,
°C
wind,
m/s
gust,
m/s
humid.,
%
clouds,
%
prec.,
mm/h
press.,
hPa
HPBL,
m
2 march, tue
tue200:00+1w2289100 0.1 102868
03:000nw239499 0.1 1028199
06:00−1wnw239196 0.0 1028274
09:00+1wsw468590 0.0 1028459
12:00+4wsw686745 0.0 10251181
15:00+6w8115659 0.1 10231445
18:00+4wsw6126990 0.0 1021801
21:00+2w8157095 0.0 1020814
3 march, wed
wed300:00+1wsw91577100 0.0 1017796
03:00+1wsw10178399 0.0 1016905
06:00+1w111696100 1.5 10131018
09:00+1w71297100 3.6 1014631
12:00+1wnw61095100 0.3 1016649
15:00+4nw796896 0.8 10181358
18:00+1wnw5107592 0.1 1020468
21:00−1nw5127577 0.2 1023539
4 march, thu
thu400:00−2wnw49770 0.0 1024358
03:00−2wnw37800 0.0 1026227
06:00−2w37800 0.0 1026200
09:00+1wsw58610 0.0 1026485
12:00+4wsw68490 0.0 1025925
15:00+6wsw68480 0.0 10231123
18:00+2sw47680 0.0 1021105
21:000ssw48751 0.0 1021154
5 march, fri
fri500:000sw498111 0.0 1021166
03:000sw410825 0.0 1020221
06:00−1sw5118542 0.0 1019321
09:00+3sw6116830 0.0 1019570
12:00+7sw811590 0.0 10181076
15:00+8sw710520 0.0 10171185
18:00+5sw46700 0.0 101686
21:00+3ssw511810 0.0 1017234
6 march, sat
sat600:00+2sw4108598 0.0 1016271
03:00+1sw478988 0.0 1015132
06:00+1ssw51281100 0.0 1014304
09:00+5wsw6156896 0.0 1014816
12:00+9w7116199 0.0 10131137
15:00+10w71064100 0.0 10121306
18:00+7nw4686100 0.3 1012324
21:00+2n71096100 5.5 1013374